Location: Drocourt
(49.0571°N, 1.7669°E)
Time: 16:56:33
(UTC+00:00)

Vanguard 2 Rocket - Visible Passes

Search period start: 13 April 2024 00:00
Search period end: 23 April 2024 00:00
Orbit: 555 x 3307 km, 32.9° (Epoch: 13 April)

Date Brightness Start Highest point End Pass type
(mag) Time Alt. Az. Time Alt. Az. Time Alt. Az.
13 Apr 9.3 01:54:17 35° SW 02:00:08 43° S 02:12:05 10° ESE visible
13 Apr 9.4 04:00:49 10° W 04:13:56 30° SSW 04:22:47 10° SSE visible
13 Apr 10.3 20:17:19 10° SSE 20:43:31 - E 20:24:32 16° SE visible
13 Apr 10.0 22:24:46 10° SSW 22:48:58 26° ESE 22:56:00 10° E visible
14 Apr 9.4 00:54:26 43° SSW 00:56:45 44° S 01:10:16 10° ESE visible
14 Apr 9.3 02:59:53 18° WSW 03:11:29 37° SSW 03:22:06 10° SE visible
14 Apr 10.0 21:22:58 10° SSW 21:48:49 17° ESE 21:52:21 10° E visible
14 Apr 9.5 23:35:07 10° SW 23:54:13 43° SSE 00:07:58 10° ESE visible
15 Apr 9.4 01:59:37 28° WSW 02:08:32 43° SSW 02:20:51 10° SE visible
15 Apr 9.6 04:09:40 10° W 04:22:05 26° SW 04:30:52 10° SSE visible
15 Apr 10.1 20:22:17 10° S 20:34:43 22° SE 20:40:02 20° ESE visible
15 Apr 9.7 22:32:10 10° SW 22:53:00 37° SE 23:05:08 10° E visible
16 Apr 9.4 00:46:52 10° WSW 01:05:08 46° S 01:19:06 10° ESE visible
16 Apr 9.5 03:04:23 10° W 03:19:43 34° SSW 03:30:27 10° SSE visible
16 Apr 10.3 19:23:29 10° SSE 19:31:59 15° SE 19:41:02 10° ESE visible
16 Apr 9.8 21:29:58 10° SSW 21:45:49 34° SSE 22:01:41 10° E visible
16 Apr 9.5 23:43:07 10° WSW 00:01:26 46° S 00:16:51 10° ESE visible
17 Apr 9.4 01:59:33 10° WSW 02:16:49 41° SSW 02:29:23 10° SE visible
17 Apr 9.8 04:18:54 10° W 04:30:01 21° SW 04:38:24 10° S visible
17 Apr 10.0 20:28:38 10° SSW 20:42:30 28° SE 20:57:26 10° E visible
17 Apr 9.6 22:39:58 10° SW 22:57:36 44° SSE 23:14:03 10° ESE visible
18 Apr 9.5 00:55:11 10° WSW 01:13:26 45° S 01:27:44 10° SE visible
18 Apr 9.6 03:13:09 10° W 03:27:45 30° SSW 03:38:28 10° SSE visible
18 Apr 10.2 19:28:28 10° S 19:39:36 21° SE 19:52:03 10° E visible
18 Apr 9.7 21:37:30 10° SW 21:53:50 40° SSE 22:10:41 10° E visible
18 Apr 9.5 23:51:20 10° WSW 00:09:42 47° S 00:25:33 10° ESE visible
19 Apr 9.6 02:08:06 10° W 02:24:57 37° SSW 02:37:39 10° SE visible
19 Apr 9.8 20:35:46 10° SSW 20:50:21 34° SSE 21:06:40 10° E visible
19 Apr 9.6 22:48:03 10° WSW 23:05:48 47° S 23:22:48 10° ESE visible
20 Apr 9.5 01:03:39 10° WSW 01:21:39 43° SSW 01:36:10 10° SE visible
20 Apr 9.8 03:22:15 10° W 03:35:36 25° SW 03:45:59 10° S visible
20 Apr 10.0 19:34:55 10° S 19:47:16 26° SE 20:01:50 10° E visible
20 Apr 9.7 21:45:25 10° SW 22:01:55 44° SSE 22:19:28 10° ESE visible
20 Apr 9.5 23:59:44 10° WSW 00:17:56 46° S 00:34:03 10° ESE visible
21 Apr 9.7 02:16:53 10° W 02:32:56 33° SSW 02:45:34 10° SSE visible
21 Apr 9.7 20:43:25 10° SW 20:58:17 38° SSE 21:15:34 10° E visible
21 Apr 9.6 22:56:23 10° WSW 23:14:00 48° S 23:31:22 10° ESE visible
22 Apr 9.6 01:12:16 10° W 01:29:43 39° SSW 01:44:18 10° SE visible
22 Apr 10.0 03:31:55 10° W 03:43:17 20° SW 03:52:42 10° S visible
22 Apr 9.9 19:42:09 10° SSW 19:55:03 32° SSE 20:10:59 10° E visible
22 Apr 9.6 21:53:38 10° SW 22:10:03 46° S 22:28:05 10° ESE visible
